Change the Weather History Date:

Saturday, July 12, 2014

  Actual Average Record
Temperature  
Mean Temperature 75 °F 74 °F  
Max Temperature 95 °F 92 °F 107 °F (1927)
Min Temperature 54 °F 56 °F 42 °F (1924)
Degree Days  
Heating Degree Days 0 0  
Month to date heating degree days 0  
Since 1 June heating degree days 32  
Since 1 July heating degree days 0  
Cooling Degree Days 10 9  
Month to date cooling degree days 97  
Year to date cooling degree days 261  
Since 1 June cooling degree days 209  
Growing Degree Days 24 (Base 50)    
Moisture  
Dew Point 52 °F    
Average Humidity 57    
Maximum Humidity 89    
Minimum Humidity 24    
Precipitation  
Precipitation 0.00 in 0.00 in 0.00 in (2015)
Month to date precipitation 0.00 0.04  
Year to date precipitation 16.63 23.42  
Since 1 July precipitation 0.00 0.04  
Snow  
Snow 0.00 in - - ()
Month to date snowfall 0.0  
Since 1 June snowfall 0.0  
Since 1 July snowfall 0.0  
Snow Depth -    
Sea Level Pressure  
Sea Level Pressure 30.01 in    
Wind  
Wind Speed 2 mph (NE)    
Max Wind Speed 13 mph    
Max Gust Speed 16 mph    
Visibility 10 miles    
Events      
T = Trace of Precipitation, MM = Missing Value Source: NWS Daily Summary

Daily Weather History Graph

Daily Weather History Graph

Search for Another Location

Airport or City:

Trip Planner

Search our weather history database for the weather conditions in past years. The results will help you decide how hot, cold, wet, or windy it might be!

Date:

Astronomy

Jul. 12, 2014 Rise Set
Actual Time 5:57 AM PDT 8:39 PM PDT
Civil Twilight 5:25 AM PDT 9:10 PM PDT
Nautical Twilight 4:46 AM PDT 9:50 PM PDT
Astronomical Twilight 4:01 AM PDT 10:34 PM PDT
Moon 8:47 PM PDT (7/12) 6:22 AM PDT (7/12)
Length of Visible Light 15h 45m
Length of Day
14h 42m
Full, 100% of the Moon is Illuminated
Jul 12
Full
Jul 18
Last Quarter
Jul 26
New
Aug 3
First Quarter
Aug 10
Full

Hourly Weather History & Observations

Time (PDT) Temp. Heat Index Dew Point Humidity Pressure Visibility Wind Dir Wind Speed Gust Speed Precip Events Conditions
12:56 AM 61.0 °F - 52.0 °F 72% 30.04 in 10.0 mi Calm Calm - N/A   Clear
1:56 AM 59.0 °F - 52.0 °F 78% 30.03 in 10.0 mi South 4.6 mph - N/A   Clear
2:56 AM 57.9 °F - 52.0 °F 81% 30.04 in 10.0 mi Calm Calm - N/A   Clear
3:56 AM 57.0 °F - 51.1 °F 81% 30.04 in 10.0 mi Calm Calm - N/A   Clear
4:56 AM 54.0 °F - 50.0 °F 86% 30.05 in 10.0 mi Calm Calm - N/A   Clear
5:56 AM 54.0 °F - 50.0 °F 86% 30.06 in 10.0 mi Calm Calm - N/A   Clear
6:56 AM 54.0 °F - 50.0 °F 86% 30.06 in 10.0 mi Calm Calm - N/A   Clear
7:56 AM 59.0 °F - 51.1 °F 75% 30.06 in 10.0 mi Calm Calm - N/A   Clear
8:56 AM 63.0 °F - 52.0 °F 67% 30.06 in 10.0 mi Calm Calm - N/A   Clear
9:56 AM 69.1 °F - 54.0 °F 58% 30.06 in 10.0 mi Calm Calm - N/A   Clear
10:56 AM 73.9 °F - 54.0 °F 50% 30.04 in 10.0 mi NE 3.5 mph - N/A   Clear
11:56 AM 80.1 °F 79.9 °F 53.1 °F 39% 30.02 in 10.0 mi East 4.6 mph - N/A   Clear
12:56 PM 84.9 °F - 52.0 °F 32% 30.01 in 10.0 mi East 4.6 mph - N/A   Clear
1:56 PM 90.0 °F 87.7 °F 54.0 °F 29% 29.99 in 10.0 mi East 3.5 mph - N/A   Clear
2:56 PM 93.0 °F 91.4 °F 55.9 °F 29% 29.97 in 10.0 mi NNW 8.1 mph - N/A   Clear
3:56 PM 95.0 °F 92.7 °F 54.0 °F 25% 29.96 in 10.0 mi North 10.4 mph - N/A   Clear
4:56 PM 93.0 °F - 51.1 °F 24% 29.95 in 10.0 mi North 10.4 mph - N/A   Clear
5:56 PM 89.1 °F - 51.1 °F 27% 29.95 in 10.0 mi NNE 10.4 mph - N/A   Clear
6:56 PM 84.9 °F - 50.0 °F 30% 29.96 in 10.0 mi North 11.5 mph - N/A   Clear
7:56 PM 81.0 °F - 48.9 °F 33% 29.97 in 10.0 mi North 9.2 mph - N/A   Clear
8:56 PM 78.1 °F - 46.9 °F 33% 29.98 in 10.0 mi North 5.8 mph - N/A   Clear
9:56 PM 72.0 °F - 51.1 °F 48% 30.00 in 10.0 mi SSE 3.5 mph - N/A   Clear
10:56 PM 66.9 °F - 52.0 °F 59% 30.01 in 10.0 mi South 3.5 mph - N/A   Clear
11:56 PM 66.9 °F - 51.1 °F 57% 30.01 in 10.0 mi Calm Calm - N/A   Clear